Showing default

YAOGAN 21, 40143

Orbit data source: Space-Track

YAOGAN 21, 40143 is a payload satellite owned by PLA GAD (CN) in SSO that was launched on Mon, 08 Sep 2014 UTC via a CHANG ZHENG 4B launch vehicle from the Taiyaun Space Center, China (TSC). Payload-class satellites include a variety of spacecraft equipped with specific instruments for various scientific and technological missions. These include communications satellites like Starlink; space stations such as the ISS; scientific satellites like the Hubble; Earth observation satellites from companies like Planet Labs, Umbra, and HawkEye 360; GPS; miniature CubeSats for education and research; and military/defense satellites.

Loading next visibility...
Identifier
40143, 2014-053A
Orbit
SSO
Country
Flag of CNCN / PRC
Related business
Manufacturer
CAST
Mission
Operational Defense Imaging
Bus & Motor
JB-10, Unknown motor
Mass
~3,000 kg wet, ~3,000 kg dry
Launch date (UTC)
2014-09-08 (12 years ago)
Launch vehicle
CHANG ZHENG 4B
Launch site
Taiyaun Space Center, China (TSC)
Object type
Payload
Rocket body
Debris
Shape & HBR
Box + 2 Pan, 4.0 m
Radar Cross Section
9.231 m², Large (>1 m²)

Expand to show TLE details & history
Last TLE update: 21 hours ago

TLE from 21 hours ago
0 YAOGAN 21
1 40143U 14053A   26172.55485899  .00009004  00000-0  34775-3 0  9998
2 40143  97.1472 212.6033 0009920  81.2546 278.9817 15.26432475655622
Epoch: 2026-06-21T13:18Z
TLE epoch observation values (Epoch: 2026-06-21T13:18:59.816Z)
Latitude
0.00001°
Longitude
103.10061°
Altitude
488.537 km
Speed
7.621 km/s
True Right ascension
14h 10m 24s
True Declination
0° 00' 00"
Sunlit
Object was in full shadow at epoch
Visualization orbit readout
Latitude
Unknown
Longitude
Unknown
Altitude
Unknown
Speed
Unknown
Apparent Right ascension
Unknown
Apparent Declination
Unknown
Sunlit
N/A
Visualization observer readout
Local Sidereal Time
21:40:52
Azimuth
Unknown
Elevation
Unknown
Doppler factor
Unknown
Orbital elements
Apogee altitude
490.24 km
Perigee altitude
476.627 km
Semi-major axis
6,861.571 km
Eccentricity
0.00099
Inclination
97.1472°
RAAN
212.6033°
Arg. of periapsis
81.2546°
True anomaly
278.8694°
Mean anomaly
278.9817°
Eccentric anomaly
278.92555°
Mean motion
3.81863 °/min
Orbital period
94.27 mins
BSTAR
0.00034775
Loading maneuver chart data...
Computing Atmospheric mass density...
Loading historical data...
Loading historical data...
Loading historical data...
Loading historical data...
Loading historical data...
Loading historical data...
Loading historical data...
Other satellites on launch #53 in the year 2014 (2014-09-08 UTC)

Documentation

Showing up to 5 results
|